星链-32744 (STARLINK-32744)

导读 | 豆包AI

STARLINK-32744是美国太空探索技术公司SpaceX星链星座中的一颗卫星,于北京时间2025年1月6日8点发射入轨。星链项目旨在构建全球卫星互联网星座,为全球偏远、欠发达地区以及海上、航空等场景提供高速互联网接入服务,该卫星的发射进一步扩充了星链星座的在轨规模,推动全球覆盖组网进程。

基本信息
目录编号:
62509
目录名称:
STARLINK-32744
国际标识:
2025-003Y
轨道中心:
EARTH
卫星名称:
星链-32744
卫星全名:
星链-32744 (STARLINK-32744)
卫星状态:
在轨 (已飞行433 天)
发射日期:
2025-01-06 UTC
国别 :
美国 (US)
星等 :
--
轨道信息
数据来源 国际轨道数据
星历时间: 2026-03-14T19:59:10+0800
15小时前
查看轨道信息
半长轴: 6861.074km
偏心率: 0.0000654
轨道倾角: 42.998°
近地点辐角 46.437°
升交点赤经 262.113°
平近点角 313.653°
近地点: 482.488km
远地点: 483.386km
周期: 94.264分钟
每日圈数: 15.276175
详细信息
固有亮度:
5
最大亮度:
2.5
卫星平台:
Starlink V1.0
覆盖范围:
全球
运营商:
太空探索技术公司
运营商所在国:
美国
制造商(研发单位):
太空探索技术公司
制造商所在国:
美国
使用方式:
暂无
卫星简介
Starlink 计划是 SpaceX 推出的全球卫星互联网项目,通过发射低轨道卫星,为全球尤其是偏远地区提供高速、低延迟的互联网服务。自 2019 年起,Starlink 已部署数千颗卫星,旨在缩小全球数字鸿沟,推动互联网普及。该项目还为军事、航空等行业提供通信支持,带来广泛经济效益。
2D轨道图
3D轨道图
轨道高度分析图
轨道倾角分析图
轨道综合分析图
查看轨道综合分析图